Regional Weather Roundup
Issued by NWS

Home | Current Version | Previous Version | Graphics & Text | Print | Product List | Glossary On
Versions: 1 2 3 4 5 6 7 8 9 10 11 12 13 14 15 16 17 18 19 20 21 22 23 24 25 26 27 28 29 30 31 32 33 34 35 36 37 38 39 40 41 42 43 44 45 46 47 48 49 50
000
ASUS43 KLMK 280602
RWRKY
KENTUCKY REGIONAL WEATHER ROUNDUP
NATIONAL WEATHER SERVICE LOUISVILLE KY
200 AM EDT THU JUL 28 2016

NOTE "FAIR" INDICATES FEW OR NO CLOUDS BELOW 12,000 FEET
WITH NO SIGNIFICANT WEATHER AND/OR OBSTRUCTIONS TO VISIBILITY.

KYZ001>023-026-027-061>063-070>075-280700-
WESTERN AND SOUTH CENTRAL KENTUCKY

CITY           SKY/WX    TMP DP  RH WIND       PRES   REMARKS
PADUCAH        LGT RAIN  73  71  93 SE8       29.90F
HENDERSON      NOT AVBL
OWENSBORO      CLOUDY    74  74 100 S7        29.93F
HOPKINSVILLE   LGT RAIN  73  72  99 NE7       29.94F
BOWLING GREEN  LGT RAIN  75  73  93 CALM      29.96S
GLASGOW        NOT AVBL
$$

KYZ024-025-028>034-038-045-046-053-280700-
NORTH CENTRAL KENTUCKY

CITY           SKY/WX    TMP DP  RH WIND       PRES   REMARKS
LOUISVILLE/SDF TSTM      78  74  87 W10       29.92F FOG
LOUISVILLE/LOU CLOUDY    77  73  87 CALM      29.92F
FORT KNOX      LGT RAIN  73  73 100 S3        29.93S
$$

KYZ035>037-039>044-047>052-055>060-089>105-280700-
NORTHEAST KENTUCKY

CITY           SKY/WX    TMP DP  RH WIND       PRES   REMARKS
LEXINGTON      MOCLDY    77  73  87 S9        29.96F
COVINGTON      CLOUDY    76  75  97 CALM      29.94F FOG
FRANKFORT      CLOUDY    74  70  87 CALM      29.94F
$$

KYZ054-064>069-076>088-106>120-280700-
SOUTHEAST KENTUCKY

CITY           SKY/WX    TMP DP  RH WIND       PRES   REMARKS
JACKSON        LGT RAIN  72  70  93 CALM      30.00F
LONDON         CLOUDY    70  67  90 SE3       29.99F
SOMERSET       MOCLDY    70  70 100 CALM      29.98F
MIDDLESBORO    CLOUDY    71  71 100 CALM      30.02F
MONTICELLO     CLOUDY   N/A N/A N/A VRB6      29.99F
$$





USA.gov is the U.S. government's official web portal to all federal, state and local government web resources and services.